Location: Carrières
(48.9495°N, 2.0407°E)
Time: 18:15:28
(UTC+00:00)

Altair - Pass Details

Date: 22 April 2024
Orbit: 1502 x 1682 km, 47.2° (Epoch: 21 May)

Event Time Altitude Azimuth Distance (km) Brightness Sun altitude
Rises 20:42:11 0° 264° (W) 4,907 10.8 -15.8°
Reaches altitude 10° 20:45:21 10° 264° (W) 3,904 10.2 -16.2°
Maximum altitude 20:55:21 82° 179° (S) 1,632 7.5 -17.4°
Enters shadow 21:04:45 11° 93° (E) 3,694 9.1 -18.5°
